Location: Seven Kings
(51.5667°N, 0.1000°E)
Time: 12:03:54
(UTC+00:00)

Cosmos 1980 Rocket - Pass Details

Date: 29 October 2020
Orbit: 831 x 848 km, 71.0° (Epoch: 24 November)

Event Time Altitude Azimuth Distance (km) Brightness Sun altitude
Rises 17:32:16 0° 149° (SSE) 3,378 5.1 -9.1°
Reaches altitude 10° 17:36:01 10° 124° (SE) 2,447 4.2 -9.6°
Maximum altitude 17:38:35 13° 96° (E) 2,214 3.8 -10.0°
Enters shadow 17:39:31 13° 86° (E) 2,246 3.7 -10.2°
